Location: Luz Observatory
(34.5000°N, 117.2833°W)
Time: 18:19:49
(UTC-08:00)

Hubble Space Telescope - Visible Passes

Search period start: 25 January 2015 00:00
Search period end: 04 February 2015 00:00
Orbit: 544 x 548 km, 28.5° (Epoch: 24 January)

Date Brightness Start Highest point End Pass type
(mag) Time Alt. Az. Time Alt. Az. Time Alt. Az.
25 Jan 3.2 18:58:26 10° S 18:59:43 12° SSE 18:59:43 12° SSE visible
26 Jan 2.8 18:49:39 10° SSW 18:52:12 16° SSE 18:52:21 16° SSE visible
27 Jan 2.6 18:41:09 10° SSW 18:44:08 19° SSE 18:44:57 18° SSE visible
28 Jan 2.4 18:32:48 10° SW 18:36:05 23° SSE 18:37:32 19° SE visible
29 Jan 2.3 18:24:32 10° SW 18:28:03 26° SSE 18:30:06 18° SE visible
29 Jan 3.9 20:05:12 10° WSW 20:05:36 12° WSW 20:05:36 12° WSW visible
30 Jan 2.2 18:16:21 10° SW 18:20:00 29° S 18:22:39 16° ESE visible
30 Jan 3.6 19:57:11 10° WSW 19:58:09 16° WSW 19:58:09 16° WSW visible
31 Jan 2.1 18:08:13 10° WSW 18:11:58 32° S 18:15:12 13° ESE visible
31 Jan 3.2 19:49:12 10° WSW 19:50:43 19° WSW 19:50:43 19° WSW visible
01 Feb 2.0 18:00:07 10° WSW 18:03:56 34° S 18:07:45 10° ESE visible
01 Feb 2.9 19:41:13 10° WSW 19:43:16 23° SW 19:43:16 23° SW visible
02 Feb 2.0 17:52:03 10° WSW 17:55:54 36° S 17:59:44 10° ESE visible
02 Feb 2.7 19:33:17 10° WSW 19:35:52 25° SW 19:35:52 25° SW visible
03 Feb 2.0 17:44:00 10° WSW 17:47:51 36° S 17:51:42 10° ESE visible
03 Feb 2.6 19:25:23 10° WSW 19:28:30 24° SSW 19:28:30 24° SSW visible
